Pineville, LA

6:29 AM CST on February 19, 2017 (GMT -0600)
Alexandria Esler Regional

Weather History for KESF - January, 2013

Change the Weather History Date:

Wednesday, January 23, 2013

  Actual Average Record
Temperature  
Mean Temperature 50 °F -  
Max Temperature 73 °F 62 °F 79 °F (2002)
Min Temperature 26 °F 41 °F 18 °F (1963)
Degree Days  
Heating Degree Days 16    
Moisture  
Dew Point 42 °F    
Average Humidity 78    
Maximum Humidity 97    
Minimum Humidity 37    
Precipitation  
Precipitation 0.00 in - - ()
Sea Level Pressure  
Sea Level Pressure 30.31 in    
Wind  
Wind Speed 2 mph (SSW)    
Max Wind Speed 13 mph    
Max Gust Speed 24 mph    
Visibility 7 miles    
Events Fog    
Averages and records for this station are not official NWS values.
T = Trace of Precipitation, MM = Missing Value Source: NWS Daily Summary

Daily Weather History Graph

Daily Weather History Graph

Search for Another Location

Airport or City:

Trip Planner

Search our weather history database for the weather conditions in past years. The results will help you decide how hot, cold, wet, or windy it might be!

Date:

Astronomy

Jan. 23, 2013 Rise Set
Actual Time 7:06 AM CST 5:36 PM CST
Civil Twilight 6:40 AM CST 6:02 PM CST
Nautical Twilight 6:11 AM CST 6:31 PM CST
Astronomical Twilight 5:42 AM CST 7:00 PM CST
Moon 2:50 PM CST (1/23) 4:15 AM CST (1/23)
Length of Visible Light 11h 21m
Length of Day
10h 30m
Waxing Gibbous, 89% of the Moon is Illuminated
Jan 23
Waxing Gibbous
Jan 26
Full
Feb 3
Last Quarter
Feb 10
New
Feb 17
First Quarter

Hourly Weather History & Observations

Time (CST) Temp. Windchill Dew Point Humidity Pressure Visibility Wind Dir Wind Speed Gust Speed Precip Events Conditions
12:53 AM 39.9 °F - 37.9 °F 93% 30.31 in 10.0 mi Calm Calm - N/A   Clear
1:53 AM 39.9 °F - 37.0 °F 89% 30.30 in 8.0 mi Calm Calm - N/A   Clear
2:53 AM 37.9 °F - 36.0 °F 93% 30.31 in 5.0 mi Calm Calm - N/A   Clear
3:23 AM 37.4 °F - 35.6 °F 93% 30.31 in 2.5 mi Calm Calm - N/A   Clear
3:31 AM 37.4 °F - 35.6 °F 93% 30.31 in 7.0 mi Calm Calm - N/A   Clear
3:53 AM 37.9 °F - 36.0 °F 93% 30.30 in 9.0 mi Calm Calm - N/A   Clear
4:53 AM 37.9 °F - 36.0 °F 93% 30.31 in 8.0 mi Calm Calm - N/A   Clear
5:53 AM 39.0 °F - 37.0 °F 93% 30.34 in 7.0 mi Calm Calm - N/A   Overcast
6:53 AM 39.9 °F - 37.0 °F 89% 30.34 in 10.0 mi Calm Calm - N/A   Overcast
7:06 AM 39.2 °F - 37.4 °F 93% 30.34 in 10.0 mi Calm Calm - N/A   Mostly Cloudy
7:19 AM 39.2 °F - 37.4 °F 93% 30.35 in 10.0 mi Calm Calm - N/A   Mostly Cloudy
7:43 AM 39.2 °F - 37.4 °F 93% 30.35 in 1.5 mi Calm Calm - N/A   Overcast
7:48 AM 39.2 °F - 37.4 °F 93% 30.35 in 0.2 mi Calm Calm - N/A Fog Fog
7:53 AM 39.9 °F - 37.9 °F 93% 30.35 in 0.2 mi Calm Calm - N/A Fog Fog
8:53 AM 45.0 °F - 44.1 °F 97% 30.36 in 0.2 mi Calm Calm - N/A Fog Fog
9:03 AM 46.4 °F - 44.6 °F 93% 30.36 in 0.2 mi Calm Calm - N/A Fog Fog
9:19 AM 48.2 °F - 46.4 °F 93% 30.36 in 1.0 mi SSW 3.5 mph - N/A   Overcast
9:24 AM 50.0 °F - 48.2 °F 94% 30.37 in 4.0 mi SSW 3.5 mph - N/A   Mostly Cloudy
9:34 AM 50.0 °F - 48.2 °F 94% 30.37 in 10.0 mi SW 4.6 mph - N/A   Mostly Cloudy
9:53 AM 53.1 °F - 48.9 °F 86% 30.37 in 10.0 mi SW 5.8 mph - N/A   Mostly Cloudy
10:53 AM 64.0 °F - 45.0 °F 50% 30.36 in 10.0 mi SSW 6.9 mph - N/A   Clear
11:50 AM 26.6 °F 15.7 °F 3.2 °F 37% 30.29 in 10.0 mi WNW 12.7 mph 24.2 mph N/A   Scattered Clouds
11:53 AM 66.9 °F - 48.0 °F 51% 30.33 in 10.0 mi SW 5.8 mph - N/A   Clear
12:53 PM 70.0 °F - 48.0 °F 46% 30.30 in 10.0 mi WSW 11.5 mph - N/A   Mostly Cloudy
1:53 PM 73.0 °F - 46.9 °F 39% 30.27 in 10.0 mi SSW 8.1 mph - N/A   Partly Cloudy
2:53 PM 73.9 °F - 46.0 °F 37% 30.26 in 10.0 mi SW 9.2 mph - N/A   Clear
3:53 PM 73.0 °F - 46.0 °F 38% 30.25 in 10.0 mi South 11.5 mph - N/A   Clear
4:53 PM 71.1 °F - 46.9 °F 42% 30.25 in 10.0 mi SSW 9.2 mph - N/A   Clear
5:53 PM 66.0 °F - 50.0 °F 56% 30.24 in 10.0 mi SSW 4.6 mph - N/A   Clear
6:53 PM 63.0 °F - 51.1 °F 65% 30.25 in 10.0 mi South 5.8 mph - N/A   Clear
7:53 PM 62.1 °F - 52.0 °F 70% 30.26 in 10.0 mi SSW 4.6 mph - N/A   Clear
8:53 PM 59.0 °F - 52.0 °F 78% 30.27 in 10.0 mi South 3.5 mph - N/A   Clear
9:53 PM 57.0 °F - 52.0 °F 83% 30.27 in 10.0 mi SSW 4.6 mph - N/A   Clear
10:53 PM 52.0 °F - 48.9 °F 89% 30.27 in 10.0 mi Calm Calm - N/A   Clear
11:53 PM 51.1 °F - 48.9 °F 92% 30.27 in 6.0 mi Calm Calm - N/A   Clear